Wind_Speed
24 21 21 21 20 19 20 21 22 22 21 18 19 21 21 21 20 20 19 20 20 19 19 18 18 18 18 17 17 17 17 18 18 18 19 19 19 20 20 20 20 21 21 22
27 24 22 22 22 20 20 20 22 23 22 20 21 22 22 22 22 22 22 22 22 22 22 21 20 20 20 20 20 20 20 20 20 20 20 21 21 22 22 22 22 22 22 22
28 26 24 26 24 22 22 22 22 24 23 23 25 24 24 24 23 23 23 24 23 23 23 23 23 22 22 22 22 22 22 22 22 22 23 23 24 24 24 24 24 23 23 22
28 26 27 25 24 24 24 23 23 24 24 25 26 25 25 26 25 24 25 25 25 25 25 25 25 24 25 25 24 23 24 24 24 25 25 25 26 26 26 26 25 25 24 24
28 27 26 25 25 25 25 24 25 26 27 27 27 26 26 26 26 25 26 26 26 26 26 27 27 26 26 25 25 25 25 25 26 26 26 26 27 27 27 27 27 26 26 26
30 28 27 26 27 26 26 28 28 28 29 29 28 28 28 26 27 27 27 27 27 27 28 28 28 27 27 27 27 26 26 26 27 27 27 27 27 27 27 27 27 27 27 27
32 31 29 28 28 27 28 30 29 30 30 30 30 30 29 29 29 28 28 28 29 29 29 29 29 29 29 29 29 28 28 29 28 29 29 29 29 28 28 28 28 28 28 28
32 31 31 31 30 30 31 32 31 31 31 31 30 30 30 30 29 29 29 30 30 31 31 31 30 30 30 30 30 30 30 30 30 30 31 31 30 30 29 28 28 29 29 29
32 32 33 32 33 33 34 34 33 33 33 33 32 31 31 30 30 30 30 30 30 31 31 31 32 31 31 31 30 30 31 31 31 31 31 31 31 30 30 29 30 30 31 31
32 33 34 33 34 34 33 33 33 34 34 34 33 32 31 31 31 31 31 31 31 31 31 32 32 33 32 32 32 31 32 32 32 32 33 32 32 31 32 32 31 31 31 32
34 34 36 36 35 34 33 33 33 34 35 35 34 33 32 32 32 32 32 32 31 31 31 32 32 32 33 33 32 32 32 32 32 33 33 34 34 33 33 32 32 31 31 32
33 33 35 35 35 35 35 34 34 35 35 35 34 33 32 33 33 32 32 32 31 31 32 32 32 32 32 32 32 32 32 32 33 34 34 35 34 34 34 34 33 33 32 32
34 35 35 34 35 35 35 35 35 35 34 34 33 33 33 32 32 32 32 32 32 32 32 32 32 32 32 32 32 32 32 33 33 33 33 33 33 33 33 33 33 32 31 31
35 34 35 34 34 35 35 35 35 34 34 33 33 33 33 33 32 32 32 32 32 31 31 30 30 31 31 31 31 31 32 32 31 31 32 32 33 33 32 32 32 30 30 30
36 34 34 34 34 34 35 35 34 34 34 33 33 32 32 32 32 32 32 32 32 31 30 30 30 31 31 31 31 31 31 31 31 31 32 32 32 32 32 31 31 30 30 30
34 34 33 34 34 33 33 33 33 33 33 32 32 32 32 32 32 32 32 32 32 32 31 30 31 32 32 31 32 32 32 31 32 32 32 32 31 31 31 30 29 29 29 29
33 32 32 33 33 32 32 32 31 32 31 31 32 32 31 31 31 30 30 31 32 31 31 31 31 31 31 31 31 31 31 32 32 32 31 31 30 30 30 30 29 29 28 28
32 32 32 32 31 31 31 31 30 30 31 31 30 30 30 30 30 29 29 30 30 30 30 31 31 31 31 31 30 30 31 31 31 31 30 30 29 29 29 29 29 30 29 28
30 30 31 32 31 30 30 30 31 31 31 30 29 29 29 29 29 29 29 29 30 30 30 30 31 30 29 29 29 29 30 30 30 31 31 30 30 30 30 29 29 29 27 26
29 28 29 29 28 29 29 30 30 29 30 29 28 28 28 29 29 29 29 29 30 30 30 29 29 29 29 29 29 29 30 30 31 30 29 29 29 29 29 28 28 27 27 27
26 26 27 26 26 26 27 27 27 28 27 27 27 27 28 28 28 28 28 28 28 28 28 28 28 28 29 28 28 28 28 29 29 29 28 28 28 28 28 27 27 27 27 28
25 25 25 25 25 25 26 27 27 28 28 27 27 27 28 28 28 27 27 27 26 27 27 27 28 28 28 27 26 27 27 28 27 28 28 28 27 27 26 26 26 27 28 28
23 23 23 24 24 24 25 25 26 26 26 25 25 25 25 26 26 26 26 26 26 27 27 28 28 27 26 25 25 26 26 26 26 26 27 27 27 26 26 26 26 27 27 27
22 22 22 22 23 23 23 23 23 23 23 23 23 23 23 24 25 25 25 26 26 25 25 25 26 25 25 24 24 24 24 24 24 25 25 25 25 25 25 26 27 28 28 28
22 22 21 21 22 22 23 22 22 22 22 21 21 22 23 24 24 24 24 23 22 22 22 22 22 22 22 22 22 22 22 22 22 23 24 24 24 25 26 27 28 29 29 29
21 21 21 21 21 22 22 22 22 21 21 20 20 21 22 22 21 21 20 20 20 21 21 21 21 21 21 21 21 21 20 21 21 21 22 23 23 25 26 27 27 28 29 29
20 20 20 20 19 20 21 21 21 21 20 19 19 19 20 19 19 19 19 19 19 20 20 20 20 21 21 21 21 21 21 21 21 21 22 23 24 25 26 27 28 29 29 30
Wind_Direction
236 231 236 239 247 246 244 244 250 258 262 264 266 268 268 269 270 272 273 273 276 277 280 284 286 288 292 294 297 299 299 300 300 299 299 300 302 304 305 306 307 306 305 307
238 232 234 240 241 242 247 252 256 260 261 262 263 265 267 268 270 271 271 272 273 274 277 279 280 283 286 289 292 294 295 296 297 297 297 297 299 301 302 303 303 304 304 305
239 239 238 240 242 242 244 249 257 260 261 260 262 265 269 271 269 268 270 270 270 271 274 276 277 279 282 285 287 289 290 291 292 294 295 295 295 297 297 298 298 300 301 303
241 239 242 240 243 244 246 247 251 256 257 259 261 264 267 269 271 271 271 270 271 272 272 273 275 277 280 283 284 285 287 288 289 291 291 292 293 293 294 295 295 296 296 298
241 242 247 243 241 244 246 247 249 252 255 260 264 267 268 268 269 271 270 269 270 271 272 272 272 275 277 280 282 284 286 288 289 290 289 290 291 291 292 293 293 292 293 294
240 239 243 246 246 246 248 251 252 253 255 259 262 268 270 270 270 270 271 271 270 270 270 271 272 275 278 279 282 282 283 284 285 288 288 290 291 289 289 291 291 291 291 293
240 241 242 243 246 246 246 248 251 253 256 258 260 264 269 270 271 271 270 270 270 268 269 271 273 274 276 278 279 280 281 282 282 286 288 289 288 288 288 288 288 288 289 292
240 240 241 244 242 245 249 250 252 255 258 260 262 265 268 269 270 270 271 271 271 269 269 271 273 274 275 276 278 278 280 281 282 283 286 286 286 285 286 287 287 286 287 289
240 242 243 245 247 248 250 253 253 256 259 262 265 266 268 269 270 270 271 272 271 270 269 270 271 273 274 276 276 277 279 280 281 282 284 285 285 283 284 285 286 287 288 289
240 243 243 245 247 248 249 253 255 258 261 265 265 266 268 269 270 271 271 271 271 271 272 272 271 271 272 274 276 276 278 278 279 281 282 283 284 285 285 286 285 287 288 288
239 242 242 243 247 249 249 253 255 258 262 265 266 266 267 268 269 271 272 272 271 271 272 273 272 271 272 274 275 275 277 278 279 281 283 283 284 284 285 285 285 287 288 289
238 242 245 243 246 250 252 255 257 260 262 265 265 266 267 268 269 270 272 271 270 271 272 271 271 272 273 274 275 275 276 278 280 282 283 283 283 283 283 286 285 286 287 288
240 245 248 249 248 250 254 256 258 260 262 262 263 264 265 267 268 269 271 270 271 271 273 273 272 272 273 274 275 276 278 279 282 283 283 285 285 284 284 285 286 286 286 287
241 244 247 249 250 252 255 257 258 259 260 261 262 263 265 266 268 269 271 271 272 273 273 275 275 275 275 274 275 277 279 281 283 284 284 285 285 284 283 284 286 286 286 286
244 246 248 250 251 253 255 257 258 258 258 259 261 263 265 267 269 270 271 271 271 273 274 275 275 277 278 277 277 279 280 281 283 284 284 285 286 285 284 284 285 285 286 287
245 248 249 252 253 254 255 256 256 257 257 259 261 263 265 267 269 269 270 270 270 271 272 274 275 277 278 277 278 279 279 280 283 284 285 285 285 284 283 283 283 284 284 286
246 247 249 252 254 253 253 255 256 257 257 258 261 263 265 266 268 269 270 270 271 271 272 274 276 277 278 278 278 278 278 278 280 283 285 286 286 284 283 282 283 282 283 285
245 246 249 251 253 253 252 252 252 254 256 258 261 262 263 265 267 269 270 271 271 271 271 272 274 275 276 277 277 277 277 278 280 282 284 286 285 283 282 283 283 283 284 284
245 247 249 251 252 252 251 250 250 253 255 259 261 261 262 264 266 269 271 272 273 273 272 272 274 276 276 277 277 278 278 279 280 282 283 283 284 284 282 283 284 285 283 283
245 248 249 250 251 250 250 250 250 252 255 257 259 261 264 265 267 269 271 272 274 274 273 272 275 276 277 278 279 280 279 279 281 281 281 281 283 284 284 284 285 286 285 285
245 246 247 248 248 249 249 250 250 252 255 257 259 261 264 266 268 270 271 272 274 274 274 275 275 277 278 279 280 280 279 280 281 281 281 282 282 283 285 285 285 286 286 286
244 245 246 247 247 247 248 250 251 253 255 258 259 262 265 267 269 271 272 273 275 276 276 277 278 280 280 280 280 281 281 279 279 280 281 280 281 283 284 285 286 287 288 289
244 245 245 245 245 247 248 249 251 252 254 257 259 262 264 266 268 271 274 276 278 278 278 278 278 279 281 283 282 282 280 279 280 282 281 280 281 282 283 285 287 289 290 291
241 242 243 243 244 245 247 248 250 251 254 258 260 263 266 268 270 272 275 276 277 278 278 278 279 279 281 283 283 282 280 280 281 282 282 281 280 281 283 285 286 288 290 292
238 240 240 241 242 244 247 249 250 252 255 257 260 263 267 270 273 276 277 278 277 277 278 279 281 281 283 284 285 283 282 282 283 283 281 281 282 283 284 284 284 287 289 291
234 236 239 241 243 245 246 248 251 252 254 257 262 265 267 270 273 276 276 276 278 280 281 280 281 283 285 285 285 283 282 282 284 286 286 286 285 286 287 287 287 289 291 294
234 236 239 241 243 245 247 248 251 253 255 259 263 266 270 272 273 276 277 279 281 281 281 281 282 283 284 285 285 284 284 284 285 287 290 291 292 292 292 291 290 291 293 294
Height
5873 5877 5880 5883 5884 5886 5888 5889 5891 5891 5891 5891 5891 5891 5890 5890 5890 5890 5891 5891 5891 5891 5891 5891 5891 5890 5889 5888 5887 5887 5886 5884 5883 5882 5881 5880 5879 5877 5876 5874 5873 5871 5869 5867
5867 5871 5874 5877 5879 5881 5883 5884 5885 5885 5884 5886 5885 5885 5884 5884 5885 5885 5886 5886 5886 5886 5886 5886 5886 5885 5885 5884 5883 5882 5881 5880 5879 5878 5877 5875 5874 5873 5871 5870 5868 5866 5864 5863
5861 5864 5867 5870 5873 5875 5877 5879 5880 5880 5880 5879 5879 5879 5879 5878 5879 5880 5880 5880 5880 5880 5880 5880 5880 5880 5879 5878 5877 5877 5876 5875 5874 5873 5872 5870 5869 5868 5866 5864 5862 5861 5859 5857
5854 5857 5859 5865 5868 5869 5870 5872 5873 5873 5873 5872 5873 5873 5873 5873 5873 5874 5874 5874 5874 5873 5874 5874 5874 5873 5873 5872 5871 5871 5870 5869 5868 5867 5866 5864 5863 5861 5860 5858 5856 5855 5853 5852
5848 5850 5853 5858 5860 5862 5864 5865 5866 5866 5867 5866 5866 5866 5866 5866 5867 5867 5867 5867 5867 5867 5867 5867 5867 5867 5866 5866 5865 5864 5863 5862 5861 5860 5859 5858 5856 5855 5853 5852 5850 5848 5847 5845
5840 5843 5847 5850 5852 5854 5857 5858 5858 5858 5859 5859 5860 5859 5860 5859 5860 5860 5860 5860 5860 5860 5860 5860 5860 5860 5859 5859 5858 5858 5857 5856 5854 5853 5852 5851 5850 5848 5846 5845 5843 5841 5840 5838
5832 5835 5839 5842 5844 5847 5850 5849 5849 5850 5851 5852 5853 5853 5853 5853 5853 5853 5853 5853 5853 5852 5852 5852 5852 5852 5852 5852 5851 5850 5849 5848 5847 5846 5845 5844 5842 5841 5839 5838 5836 5834 5833 5832
5825 5828 5833 5832 5835 5838 5839 5840 5841 5843 5843 5844 5845 5846 5845 5845 5845 5845 5845 5845 5844 5844 5844 5844 5844 5844 5844 5844 5843 5842 5841 5841 5840 5839 5838 5836 5834 5833 5831 5830 5829 5827 5825 5824
5818 5821 5822 5824 5827 5829 5830 5831 5833 5835 5835 5836 5837 5838 5838 5838 5838 5837 5837 5837 5837 5836 5836 5836 5836 5836 5836 5835 5835 5834 5833 5832 5832 5831 5829 5828 5826 5825 5823 5822 5821 5819 5818 5816
5808 5810 5813 5815 5817 5819 5821 5823 5824 5826 5827 5828 5828 5829 5829 5829 5829 5829 5829 5829 5829 5828 5828 5828 5828 5827 5827 5827 5826 5826 5825 5824 5823 5822 5821 5820 5819 5817 5816 5815 5813 5812 5810 5809
5798 5801 5802 5806 5808 5810 5812 5814 5815 5817 5818 5819 5819 5820 5821 5821 5821 5821 5821 5821 5821 5820 5820 5820 5819 5819 5819 5818 5818 5817 5816 5815 5814 5813 5812 5811 5810 5809 5808 5806 5805 5803 5802 5800
5788 5791 5792 5796 5799 5801 5803 5805 5807 5808 5809 5810 5810 5811 5812 5812 5812 5812 5812 5812 5812 5812 5812 5811 5811 5810 5810 5809 5809 5808 5807 5806 5805 5804 5803 5802 5801 5800 5799 5798 5796 5794 5793 5791
5779 5782 5783 5787 5789 5792 5794 5796 5798 5799 5800 5801 5802 5802 5803 5803 5803 5803 5803 5803 5803 5803 5802 5802 5802 5801 5800 5800 5800 5799 5799 5798 5796 5794 5793 5793 5792 5791 5790 5789 5786 5784 5783 5782
5770 5773 5776 5778 5781 5783 5785 5787 5788 5790 5790 5792 5792 5793 5794 5794 5794 5795 5795 5795 5794 5794 5794 5793 5793 5792 5792 5792 5791 5791 5790 5789 5787 5786 5785 5784 5783 5782 5781 5779 5778 5777 5775 5774
5762 5765 5768 5770 5772 5774 5776 5777 5779 5780 5781 5782 5783 5784 5785 5785 5786 5786 5786 5786 5786 5785 5785 5785 5784 5784 5783 5783 5782 5782 5781 5780 5779 5778 5776 5775 5774 5773 5772 5771 5770 5769 5767 5766
5754 5757 5760 5761 5764 5765 5767 5768 5770 5771 5772 5773 5774 5775 5776 5776 5777 5777 5777 5777 5777 5777 5776 5776 5776 5775 5774 5774 5773 5773 5772 5771 5770 5769 5768 5767 5765 5764 5763 5762 5761 5760 5759 5758
5746 5749 5751 5753 5755 5756 5758 5760 5761 5762 5763 5765 5765 5766 5767 5768 5768 5768 5768 5768 5768 5768 5767 5767 5767 5766 5765 5765 5764 5764 5763 5762 5761 5760 5759 5758 5757 5756 5755 5753 5752 5752 5750 5750
5738 5740 5742 5744 5746 5748 5750 5751 5753 5754 5755 5756 5756 5758 5759 5759 5760 5760 5760 5760 5759 5759 5758 5758 5757 5756 5756 5756 5755 5755 5754 5753 5753 5752 5751 5750 5749 5747 5746 5745 5744 5743 5742 5741
5729 5732 5734 5736 5738 5740 5742 5743 5745 5746 5748 5748 5749 5750 5751 5751 5751 5751 5751 5751 5751 5750 5750 5749 5748 5748 5747 5747 5746 5745 5745 5744 5744 5743 5742 5741 5740 5739 5738 5737 5735 5734 5733 5732
5722 5724 5726 5728 5730 5732 5733 5735 5736 5738 5739 5741 5741 5742 5743 5743 5743 5743 5743 5743 5742 5742 5741 5741 5740 5739 5738 5737 5737 5736 5736 5735 5735 5734 5733 5732 5731 5730 5729 5728 5727 5726 5725 5724
5715 5717 5719 5721 5723 5724 5726 5727 5729 5730 5731 5732 5734 5734 5735 5735 5735 5735 5735 5734 5734 5733 5733 5732 5732 5731 5729 5729 5728 5727 5727 5727 5726 5725 5725 5724 5723 5722 5721 5720 5719 5718 5717 5715
5708 5710 5712 5714 5716 5718 5719 5721 5722 5723 5724 5725 5726 5727 5727 5728 5727 5727 5727 5726 5726 5725 5725 5724 5724 5723 5722 5721 5719 5719 5719 5718 5718 5717 5717 5716 5715 5714 5713 5712 5711 5710 5709 5707
5701 5703 5705 5707 5709 5711 5712 5714 5715 5716 5717 5718 5719 5719 5720 5720 5720 5720 5719 5719 5718 5718 5717 5716 5716 5715 5714 5713 5712 5712 5711 5710 5709 5709 5709 5708 5707 5706 5706 5705 5703 5702 5701 5699
5696 5698 5700 5701 5703 5705 5706 5708 5709 5710 5711 5712 5712 5713 5713 5713 5713 5713 5712 5712 5711 5710 5709 5709 5708 5708 5707 5706 5705 5704 5703 5702 5702 5702 5701 5700 5699 5698 5697 5696 5695 5694 5693 5691
5690 5692 5694 5696 5698 5699 5701 5702 5703 5704 5705 5705 5706 5707 5707 5707 5706 5706 5705 5704 5703 5703 5703 5702 5701 5701 5700 5699 5699 5698 5697 5695 5695 5694 5693 5692 5691 5690 5689 5688 5687 5685 5683 5681
5684 5687 5689 5690 5692 5694 5695 5696 5697 5698 5699 5700 5700 5701 5701 5700 5700 5699 5699 5698 5697 5697 5696 5696 5695 5694 5694 5693 5692 5691 5690 5689 5688 5687 5686 5684 5683 5682 5681 5679 5678 5677 5675 5672
5679 5682 5683 5685 5687 5688 5689 5691 5692 5693 5694 5695 5695 5695 5695 5694 5694 5694 5693 5692 5692 5691 5690 5689 5689 5688 5687 5687 5686 5685 5684 5682 5681 5680 5679 5678 5676 5674 5673 5671 5669 5667 5665 5663